Wind_Speed
64 66 68 70 71 72 75 77 80 80 80 82 88 94 101 107 113 118 121 122 122 121 118 114 111 108 105 103 102 101 99 98 98 99 99 100 101 102
66 68 70 71 72 75 78 81 86 90 91 91 97 103 109 116 119 121 121 118 112 106 101 96 91 88 85 84 83 83 83 83 84 85 86 87 89 91
69 70 71 72 75 78 82 87 92 98 102 102 107 111 113 113 111 107 103 97 90 83 78 73 71 69 68 67 67 67 68 69 70 72 74 76 79 81
69 70 72 75 78 83 88 93 99 105 110 113 112 110 104 98 91 84 79 75 70 65 61 59 56 55 54 53 53 54 55 56 58 59 62 65 68 72
70 72 75 79 83 88 94 99 105 109 112 113 107 98 87 78 71 64 59 56 55 54 52 50 49 49 48 47 47 46 46 46 48 49 51 54 58 62
72 76 79 84 89 95 100 105 108 109 106 101 91 80 69 61 54 49 44 43 43 44 44 43 43 43 43 43 41 40 39 39 40 41 44 46 49 53
75 80 84 90 96 101 105 107 106 101 93 84 73 63 55 48 43 39 36 34 35 39 38 38 40 40 40 39 38 37 36 35 36 37 38 40 43 46
79 84 90 95 100 104 105 102 95 87 77 67 58 51 44 40 36 35 34 32 32 36 36 35 37 36 36 34 33 32 31 30 31 32 33 35 37 40
84 90 95 100 103 103 98 89 79 70 62 55 48 43 38 36 33 31 31 31 32 35 34 31 32 32 32 31 29 28 26 25 25 26 28 29 31 34
90 95 99 101 100 96 86 75 64 56 50 46 42 38 35 34 32 32 30 29 30 35 36 32 30 29 29 28 27 25 24 23 23 24 25 27 28 31
94 98 100 98 93 84 73 61 51 45 41 39 38 36 35 34 34 32 31 29 28 30 34 33 30 27 27 26 25 24 22 21 22 23 24 27 29 32
96 98 96 89 79 69 59 49 41 37 35 33 33 34 33 33 33 34 34 32 30 28 29 29 28 24 21 23 22 21 22 24 25 25 26 28 29 32
95 92 85 75 66 57 48 40 36 33 31 30 30 31 31 31 32 34 35 34 32 29 28 26 24 22 19 19 21 23 24 25 26 26 26 26 27 29
90 82 72 63 54 46 39 34 32 30 29 30 29 30 30 30 31 32 33 33 32 30 26 24 21 18 18 19 20 21 24 26 26 26 25 25 25 25
79 69 60 51 43 37 33 31 29 28 28 28 28 29 30 30 29 30 30 31 31 29 24 21 18 17 18 19 20 22 23 24 24 24 25 24 23 20
66 57 48 41 36 32 30 29 29 28 28 28 28 29 30 30 30 28 27 25 24 24 21 17 16 16 17 20 22 24 24 23 21 22 24 24 22 18
54 45 38 33 30 30 30 29 29 29 30 31 31 31 31 30 29 28 26 23 21 18 16 14 13 14 16 20 22 23 22 21 21 22 23 24 23 21
44 37 31 28 27 27 27 29 30 30 31 32 32 32 30 28 27 26 23 21 18 15 12 10 10 12 15 18 20 20 19 18 19 21 23 25 26 27
35 30 27 26 27 27 27 29 30 31 32 32 31 30 28 26 24 22 19 18 16 13 10 7 7 9 12 15 17 19 18 17 18 19 21 23 25 27
29 26 25 26 26 27 28 30 31 31 31 30 29 27 26 24 22 20 17 15 13 10 8 5 4 7 10 12 15 18 17 17 17 18 20 21 23 25
25 24 24 24 26 28 29 30 30 30 29 28 26 25 23 22 20 17 14 12 10 8 6 3 3 5 8 11 14 17 17 16 16 17 18 19 20 21
21 22 22 24 26 28 29 30 29 29 28 26 25 23 21 20 18 16 13 10 8 6 4 2 3 4 6 9 12 15 16 16 15 15 15 16 18 19
19 20 22 24 26 28 29 29 29 28 27 26 25 23 21 19 18 16 12 9 7 4 2 2 4 5 6 8 10 13 15 16 16 15 14 16 18 19
Wind_Direction
301 302 303 303 303 303 302 302 302 301 300 301 300 300 299 298 297 296 294 292 291 289 287 286 284 282 280 278 276 274 272 270 268 266 264 262 260 258
303 304 304 304 304 304 304 304 305 304 304 304 303 302 301 300 298 297 295 294 292 291 289 287 285 282 280 278 276 273 270 268 266 264 262 260 258 256
305 305 305 305 305 306 306 306 306 306 306 306 305 304 302 300 298 297 296 295 294 293 292 289 287 284 282 280 277 274 272 269 266 263 261 258 256 254
305 305 306 306 307 307 308 308 308 308 308 307 307 305 303 302 300 298 297 297 296 296 294 293 291 290 288 285 281 278 274 271 268 265 261 258 256 253
306 307 308 308 309 309 309 309 309 309 309 309 308 307 306 304 303 302 301 300 299 298 298 297 296 295 293 290 287 284 280 276 271 267 263 260 256 253
308 309 310 310 311 311 311 311 311 311 310 310 310 310 310 308 308 307 306 305 303 302 302 303 302 301 299 296 292 288 284 280 275 270 265 261 257 253
310 311 311 312 312 313 313 313 313 312 311 311 312 313 313 313 313 313 312 311 309 306 308 308 306 306 305 302 299 294 289 284 279 275 270 265 260 255
312 312 313 313 314 314 314 314 314 313 313 314 315 316 317 317 318 318 318 317 313 308 311 312 309 309 307 306 304 301 297 291 284 279 273 267 261 257
313 314 314 315 315 315 315 315 314 313 314 315 317 318 319 319 321 323 323 323 319 316 318 319 314 314 312 311 310 309 306 300 292 285 278 270 263 258
315 315 316 316 316 316 315 315 315 314 315 316 318 320 322 323 325 327 328 329 326 321 324 327 322 320 318 318 316 314 310 305 298 291 284 277 270 263
316 317 317 317 317 316 316 317 316 316 316 318 320 322 324 325 327 329 330 333 332 327 327 330 329 327 324 324 325 324 321 316 310 302 294 286 278 270
318 318 318 317 317 317 318 318 318 318 318 318 320 321 323 325 327 329 332 334 336 333 331 332 332 333 332 331 335 335 332 327 322 313 304 293 284 277
319 318 318 317 317 317 318 319 319 319 319 320 320 321 323 325 328 330 332 333 337 338 337 339 340 342 347 348 344 341 338 335 332 327 320 310 297 285
319 319 318 317 317 318 318 320 320 320 321 321 321 322 323 326 328 330 330 331 334 340 342 344 348 352 356 357 355 353 348 343 341 338 333 325 314 300
319 319 318 319 319 319 320 321 321 321 321 322 322 323 324 325 328 330 331 332 334 339 345 349 354 359 1 2 2 1 359 354 351 350 349 345 337 324
320 319 320 321 321 322 323 324 324 325 324 324 324 325 325 325 327 330 331 332 334 336 344 351 359 4 5 4 5 7 7 8 9 8 8 7 5 2
321 322 322 323 324 324 325 326 327 327 327 327 327 326 326 325 326 329 331 333 336 339 344 351 1 8 10 12 11 10 13 18 24 28 29 30 34 42
324 324 325 326 326 326 327 327 327 326 326 326 325 325 325 324 324 327 331 334 338 343 348 355 5 12 14 15 17 19 24 30 39 43 47 50 55 63
326 328 328 329 330 330 330 330 329 327 327 326 326 326 326 326 326 327 330 333 338 344 350 357 11 19 22 23 25 28 36 44 50 54 58 61 66 72
329 330 331 332 333 333 333 333 332 331 331 330 330 330 330 330 330 330 330 332 337 344 351 0 23 33 31 34 37 40 47 55 61 64 67 69 72 76
331 334 335 337 338 338 339 339 338 338 338 337 336 335 334 334 335 334 334 334 339 349 358 17 52 54 46 46 46 48 55 63 68 70 73 76 79 83
336 339 342 343 344 344 344 344 344 344 345 345 344 343 341 340 341 341 340 341 345 354 6 49 93 85 69 62 59 59 63 67 71 75 77 80 85 89
343 347 348 349 349 350 349 349 350 350 350 349 349 348 347 346 345 344 343 343 345 349 9 105 126 115 93 80 75 70 70 73 76 80 86 90 94 95
Height
5633 5625 5617 5608 5599 5590 5581 5571 5564 5560 5560 5553 5538 5524 5506 5490 5473 5458 5444 5432 5421 5409 5399 5389 5381 5373 5367 5363 5360 5358 5358 5359 5360 5363 5366 5371 5377 5384
5618 5610 5600 5592 5582 5572 5562 5552 5539 5530 5527 5525 5511 5497 5477 5456 5435 5416 5399 5386 5375 5365 5356 5348 5342 5336 5332 5328 5326 5324 5324 5324 5325 5328 5331 5335 5340 5346
5602 5594 5584 5575 5565 5554 5543 5531 5518 5503 5493 5491 5478 5460 5441 5421 5402 5382 5364 5350 5340 5332 5324 5317 5312 5308 5304 5301 5298 5297 5296 5296 5297 5298 5301 5305 5309 5315
5587 5578 5568 5558 5548 5536 5523 5509 5494 5476 5458 5448 5442 5424 5405 5385 5368 5354 5340 5327 5317 5309 5302 5296 5291 5287 5283 5280 5277 5275 5273 5273 5273 5274 5276 5280 5283 5286
5571 5562 5551 5540 5529 5516 5502 5486 5469 5450 5429 5410 5400 5387 5373 5357 5344 5333 5322 5311 5301 5292 5286 5281 5276 5271 5267 5263 5260 5257 5256 5255 5254 5254 5255 5256 5259 5263
5555 5544 5533 5521 5507 5493 5478 5460 5441 5423 5404 5385 5371 5359 5348 5337 5325 5317 5309 5300 5290 5281 5274 5269 5264 5258 5253 5249 5245 5242 5240 5238 5237 5237 5237 5238 5240 5242
5539 5527 5514 5500 5484 5468 5450 5433 5413 5395 5379 5364 5353 5341 5331 5322 5314 5306 5298 5291 5283 5272 5267 5261 5254 5249 5242 5237 5232 5229 5226 5224 5223 5222 5221 5221 5222 5224
5522 5509 5495 5479 5462 5445 5425 5406 5387 5369 5357 5347 5338 5329 5320 5312 5305 5297 5289 5283 5277 5268 5260 5255 5246 5240 5234 5228 5223 5218 5215 5212 5210 5208 5207 5207 5207 5208
5503 5489 5474 5457 5438 5421 5405 5388 5371 5354 5342 5334 5327 5319 5312 5305 5298 5292 5284 5276 5268 5259 5253 5249 5240 5233 5226 5220 5215 5211 5206 5203 5200 5197 5195 5194 5194 5194
5483 5467 5451 5435 5416 5399 5385 5371 5357 5344 5334 5325 5318 5311 5304 5297 5291 5284 5278 5271 5263 5252 5245 5240 5234 5227 5220 5214 5208 5204 5199 5195 5192 5189 5186 5184 5183 5182
5463 5445 5427 5412 5396 5379 5366 5356 5345 5335 5326 5318 5311 5304 5298 5291 5284 5278 5272 5266 5260 5250 5241 5234 5227 5222 5215 5209 5203 5198 5193 5189 5185 5181 5177 5174 5171 5169
5444 5424 5405 5389 5374 5361 5352 5343 5336 5328 5321 5314 5307 5300 5293 5286 5279 5272 5265 5259 5253 5247 5239 5231 5223 5217 5213 5206 5201 5195 5189 5184 5179 5174 5169 5164 5159 5156
5423 5406 5388 5372 5360 5349 5341 5334 5327 5321 5315 5308 5302 5296 5289 5283 5276 5268 5260 5253 5247 5241 5235 5228 5221 5214 5208 5204 5199 5193 5186 5180 5173 5167 5160 5154 5148 5143
5403 5387 5372 5360 5349 5340 5333 5327 5321 5315 5309 5303 5297 5291 5285 5279 5272 5265 5257 5250 5243 5237 5231 5225 5219 5213 5208 5203 5198 5192 5184 5177 5169 5162 5154 5147 5139 5132
5385 5370 5358 5348 5340 5332 5326 5321 5315 5310 5304 5299 5293 5286 5280 5274 5268 5262 5255 5247 5240 5234 5229 5223 5218 5213 5208 5203 5197 5190 5184 5176 5168 5160 5151 5142 5133 5125
5371 5358 5348 5339 5332 5326 5320 5315 5309 5304 5299 5293 5287 5281 5275 5269 5263 5257 5252 5246 5240 5233 5228 5223 5218 5213 5209 5203 5197 5190 5183 5176 5170 5161 5152 5143 5133 5124
5358 5349 5340 5333 5327 5321 5315 5309 5304 5299 5293 5287 5281 5275 5269 5263 5257 5252 5247 5242 5237 5232 5228 5224 5219 5215 5210 5205 5199 5193 5186 5180 5173 5165 5158 5149 5141 5132
5347 5340 5334 5328 5323 5317 5312 5306 5299 5294 5288 5281 5275 5269 5263 5258 5253 5248 5243 5239 5235 5231 5227 5224 5221 5217 5213 5208 5203 5197 5191 5185 5179 5173 5167 5160 5153 5146
5340 5334 5329 5324 5318 5313 5307 5301 5295 5289 5282 5276 5270 5264 5258 5253 5248 5244 5240 5236 5233 5229 5226 5224 5221 5219 5215 5211 5207 5201 5195 5190 5186 5181 5177 5172 5167 5162
5335 5330 5325 5320 5315 5309 5303 5297 5290 5284 5277 5270 5264 5259 5253 5249 5244 5240 5237 5234 5231 5228 5226 5224 5222 5220 5217 5214 5210 5205 5200 5196 5193 5190 5186 5183 5180 5178
5332 5327 5322 5317 5311 5306 5299 5293 5286 5279 5273 5266 5260 5255 5250 5245 5241 5237 5234 5232 5229 5227 5225 5224 5223 5222 5220 5217 5214 5210 5206 5203 5200 5197 5195 5193 5192 5191
5330 5325 5320 5315 5309 5303 5296 5290 5283 5276 5270 5263 5258 5252 5247 5243 5239 5235 5232 5230 5228 5226 5225 5224 5224 5223 5222 5221 5218 5215 5212 5209 5207 5205 5204 5203 5202 5201
5328 5323 5319 5313 5307 5301 5294 5288 5281 5275 5268 5262 5256 5250 5245 5241 5237 5233 5231 5229 5227 5226 5225 5225 5225 5225 5224 5224 5222 5220 5218 5216 5214 5213 5212 5211 5210 5210